Regional Weather Roundup
Issued by NWS

Home | Current Version | Previous Version | Graphics & Text | Print | Product List | Glossary On
Versions: 1 2 3 4 5 6 7 8 9 10 11 12 13 14 15 16 17 18 19 20 21 22 23 24 25 26 27 28 29 30 31 32 33 34 35 36 37 38 39 40 41 42 43 44 45 46 47 48 49 50
000
ASUS45 KTFX 271304
RWRMT
MONTANA HOURLY WEATHER ROUNDUP
NATIONAL WEATHER SERVICE GREAT FALLS MT
604 AM MST TUE JAN 27 2015

NOTE: "FAIR" INDICATES FEW OR NO CLOUDS BELOW 12000 FEET WITH NO
SIGNIFICANT WEATHER AND/OR OBSTRUCTIONS TO VISIBILITY.

* THESE STATIONS ARE NOT UNDER NWS QUALITY CONTROL. THEY DO NOT
   REPORT WEATHER SUCH AS PRECIPITATION OR FOG.

MTZ001>007-043-271400-
WEST OF THE DIVIDE
CITY           SKY/WX    TMP DP  RH WIND       PRES   REMARKS
KALISPELL      FOG       18  16  92 CALM      29.99S
MISSOULA       FOG       25  21  85 CALM      30.06S
BUTTE          MOCLDY    25  21  85 CALM      30.06S
MULLAN PASS    PTCLDY    45  25  45 W6        30.02F
* ANACONDA     MOCLDY    39  27  62 S11        N/A   WCI  32
* ESSEX        N/A       25  24  96 N/A        N/A
* LINCOLN      N/A       23  21  92 SE1        N/A
* LOOKOUT PASS N/A       36  29  76 S2         N/A
* POLSON       N/A       37  30  76 N/A        N/A
* RONAN APT    PTCLDY    30  28  92 N/A        N/A
* SEELEY LAKE  N/A       18  16  92 E1         N/A
* THOMP F APT  PTCLDY    40  23  51 NE3G9      N/A
$$

MTZ008-052>055-271400-
SOUTHWEST MONTANA
CITY           SKY/WX    TMP DP  RH WIND       PRES   REMARKS
BOZEMAN        PTCLDY    27  21  78 S5        30.03F WCI  21
DILLON         MOCLDY    34  27  76 S12       30.05F WCI  25
* W YELLOWSTON CLEAR     17  15  92 N1         N/A
* THREE FORKS  PTCLDY    25  -2  30 N/A        N/A
* BOULDER HILL N/A       38  21  50 SW9        N/A   WCI  32
* MONIDA PASS  N/A       34  25  70 E9         N/A   WCI  27
* RAYNOLDS PAS N/A       26   9  48 SE19       N/A   WCI  12
* WHITEHALL    N/A       33  26  75 NW9G17     N/A   WCI  25
* WISE RIVER   N/A       23  20  88 W3         N/A
$$

MTZ009>010-012-014-046-048-049-054-271400-
EAST SLOPES AND CENTRAL MONTANA
CITY           SKY/WX    TMP DP  RH WIND       PRES   REMARKS
CUT BANK       CLOUDY    48  25  41 W18       29.84F
GREAT FALLS    CLOUDY    48  28  46 S14       29.90F
HELENA         MOCLDY    30  27  89 SW3       30.01F
MALMSTROM AFB  CLOUDY    46  28  50 SW14      29.90S
* DEARBORN     N/A       46  29  52 SE8        N/A
* EAST GLACIER N/A       47  20  34 W10G17     N/A
* MONARCH      N/A       51  20  29 SW6        N/A
* PENDROY      N/A       54  23  30 S4G13      N/A
* ROGERS PASS  N/A       41  22  47 NW5        N/A
* SWEET GRASS  N/A       49  22  35 SW14       N/A
$$

MTZ011-013-016-021-035-040-045-047-050-051-271400-
NORTH CENTRAL MONTANA
CITY           SKY/WX    TMP DP  RH WIND       PRES   REMARKS
HAVRE          CLOUDY    45  30  56 SW17      29.83F
LEWISTOWN      MOCLDY    45  28  51 SW14      29.93S
* N BAR RANCH  CLEAR     46  18  33 NW9       29.93S
* CHESTER      N/A       32  26  79 NE1G6      N/A
* DENTON       N/A       48  25  41 S6         N/A
* GEYSER       N/A       57  22  26 SW6        N/A
* JUDITH GAP   N/A       50  26  39 SW17G22    N/A
* LOMA         N/A       47  31  54 W9         N/A
$$

MTZ017>020-022>027-061-062-271400-
NORTHEAST MONTANA
CITY           SKY/WX    TMP DP  RH WIND       PRES   REMARKS
GLASGOW        PTCLDY    30  28  92 E6        29.83S WCI  24
GLENDIVE       CLEAR     32  28  85 SE5       29.87S WCI  27
JORDAN         PTCLDY    27  25  92 CALM      29.86F
SIDNEY         MOCLDY    30  27  89 CALM      29.86S
WOLF POINT     PTCLDY    30  27  89 W9        29.84S WCI  22
* BEAVER HILL  N/A       39  30  70 S9         N/A   WCI  33
* CIRCLE       N/A       37  31  79 N/A        N/A
* LINDSAY DVD  N/A       44  29  56 W4         N/A
* NAVAJO       N/A       40  32  73 W12G17     N/A   WCI  33
* SACO         N/A       32  30  92 S10        N/A   WCI  24
$$

MTZ028>042-056>058-271400-
SOUTHCENTRAL AND SOUTHEAST MONTANA
CITY           SKY/WX    TMP DP  RH WIND       PRES   REMARKS
BAKER          CLEAR     37  28  70 CALM      29.90S
BILLINGS       MOCLDY    48  27  44 SW20      29.93F
LIVINGSTON     PTCLDY    43  25  49 NW17G26   29.99F
MILES CITY     CLEAR     34  27  76 E5        29.90R WCI  29
* LAUREL APT   MOCLDY    39  25  57 S13        N/A   WCI  31
* ROUNDUP APT  MOCLDY    41  25  53 S11G17     N/A
* ALZADA       N/A       39  28  65 W1         N/A
* HYSHAM       N/A       48  24  39 W5         N/A
* LAME DEER    N/A       53  23  31 SW6        N/A
* REED POINT   N/A       27  27 100 SE1        N/A
* ROSCOE HILL  N/A       50  10  20 NW1        N/A
$$

REGIONAL REPORTS...DAKOTAS
CITY           SKY/WX    TMP DP  RH WIND       PRES   REMARKS
WILLISTON      MOCLDY    28  27  96 SW5       29.83S WCI  22
DICKINSON      PTCLDY    36  28  73 SW7       29.83S WCI  30
CROSBY         CLEAR     32  32 100 S13       29.80S WCI  22
WATFORD CITY   CLEAR     28  28 100 CALM      29.82F
BISMARCK       PTCLDY    30  28  92 SE7       29.92S WCI  23
GRAND FORKS    FOG       27  25  92 S13       30.03F VSB 3/4  WCI  16
FARGO          FOG       27  27 100 SE9       30.06S VSB 1/2  WCI  18
BUFFALO SD     PTCLDY    37  28  70 W9        29.85S WCI  30
RAPID CITY     CLEAR     39  25  57 W5        29.94S WCI  35
$$

REGIONAL REPORTS...WYOMING/IDAHO/WASHINGTON
CITY           SKY/WX    TMP DP  RH WIND       PRES   REMARKS
GILLETTE       PTCLDY    50  27  41 SW13      29.99S
SHERIDAN       PTCLDY    39  23  53 CALM      29.96S
CODY           PTCLDY    34  27  76 NE5       30.04R WCI  29
YELLOWSTONE LA PTCLDY     5   1  83 CALM      30.26S
SALMON         CLOUDY   N/A N/A N/A CALM      30.16S VSB 1/2
MULLAN PASS    PTCLDY    45  25  45 W6        30.02S
SAND POINT     FOG      N/A N/A N/A CALM      30.02F VSB M1/4
SPOKANE        FOG       30  28  92 NE5       29.98S VSB M1/4 WCI  25

$$




USA.gov is the U.S. government's official web portal to all federal, state and local government web resources and services.